Location: Caltech
(34.1382°N, 118.1253°W)
Time: 20:21:11
(UTC-07:00)

Cosmos 1980 Rocket - Visible Passes

Search period start: 30 July 2014 00:00
Search period end: 09 August 2014 00:00
Orbit: 829 x 851 km, 71.0° (Epoch: 30 July)

Date Brightness Start Highest point End Pass type
(mag) Time Alt. Az. Time Alt. Az. Time Alt. Az.
30 Jul 4.8 21:15:05 10° WNW 21:17:59 14° W 21:20:52 10° SW visible
31 Jul 4.8 20:59:14 10° WNW 21:02:26 16° W 21:05:38 10° SW visible
01 Aug 4.8 20:43:26 10° WNW 20:46:54 17° W 20:50:22 10° SW visible
02 Aug 4.8 20:27:39 10° WNW 20:31:21 18° W 20:35:04 10° SW visible
03 Aug 4.8 20:11:53 10° NW 20:15:49 19° W 20:19:44 10° SW visible
